COSMOS 2251 DEB, 35997

Orbit data source: Space-Track

COSMOS 2251 DEB, 35997 is space debris in LEO originally from a launch on Wed, 16 Jun 1993 UTC launched from the Plesetsk Missile And Space Complex (PKMTR). The debris from Iridium 33, an American commercial communications satellite, has been tracked extensively since its accidental collision with the defunct Russian satellite Cosmos 2251 in 2009. This event, occurring at high speed in low Earth orbit (LEO), generated thousands of pieces of space debris, significantly increasing the risk of further collisions. The Iridium 33 debris cloud has impacted space traffic management and orbital debris mitigation strategies, making it a subject of ongoing study in space situational awareness.

Loading next visibility...
Identifier
35997, 1993-036AWP
Orbit
LEO
Country
Flag of CISCIS
Related business
Manufacturer
Unknown
Mission
Spacecraft
Bus & Motor
Unknown
Mass
Unknown
Launch date (UTC)
1993-06-16 (33 years ago)
Launch vehicle
Unknown
Launch site
Plesetsk Missile And Space Complex (PKMTR)
Object type
Payload
Rocket body
Debris
Shape & HBR
Unknown shape, 0.1 m
Radar Cross Section
Small (<0.1 m²)

Expand to show TLE details & history
Last TLE update: 3 days ago

TLE from 3 days ago
0 COSMOS 2251 DEB
1 35997U 93036AWP 26170.32514785  .00001311  00000-0  32883-3 0  9998
2 35997  74.0427 192.2558 0015790 228.1109 131.8706 14.52315297736210
Epoch: 2026-06-19T07:48Z
TLE epoch observation values (Epoch: 2026-06-19T07:48:12.774Z)
Latitude
-0.00006°
Longitude
167.64681°
Altitude
728.218 km
Speed
7.487 km/s
True Right ascension
12h 49m 01s
True Declination
0° 00' 00"
Sunlit
Object was in daylight at epoch
Visualization orbit readout
Latitude
Unknown
Longitude
Unknown
Altitude
Unknown
Speed
Unknown
Apparent Right ascension
Unknown
Apparent Declination
Unknown
Sunlit
N/A
Visualization observer readout
Local Sidereal Time
00:50:11
Azimuth
Unknown
Elevation
Unknown
Doppler factor
Unknown
Orbital elements
Apogee altitude
726.903 km
Perigee altitude
704.501 km
Semi-major axis
7,093.839 km
Eccentricity
0.00158
Inclination
74.0427°
RAAN
192.2558°
Arg. of periapsis
228.1109°
True anomaly
132.00516°
Mean anomaly
131.8706°
Eccentric anomaly
131.9379°
Mean motion
3.63263 °/min
Orbital period
99.1 mins
BSTAR
0.00032883

Documentation

Showing up to 5 results
|